N5MDT Weather Reports


time (UTC)temp
C
wind
direction
speed
KPH
gust
KPH
rain 1hr
cm
rain 24hr
cm
rain mn
cm
humidity
%
barometer
mb
20260502215849 27 19 0.0 1.6 0.00 0.00 0.00 49 1019.7
20260502214819 27 328 1.6 6.4 0.00 0.00 0.00 50 1019.8
20260502213819 27 338 0.0 3.2 0.00 0.00 0.00 49 1019.9
20260502212849 27 330 1.6 8.0 0.00 0.00 0.00 50 1019.9
20260502211848 27 319 3.2 4.8 0.00 0.00 0.00 51 1019.8
20260502210818 27 331 1.6 4.8 0.00 0.00 0.00 51 1019.9
20260502205818 26 292 3.2 3.2 0.00 0.00 0.00 53 1020.0
20260502204848 26 32 0.0 3.2 0.00 0.00 0.00 55 1020.0
20260502203848 26 57 0.0 1.6 0.00 0.00 0.00 55 1020.0
20260502202818 25 309 0.0 6.4 0.00 0.00 0.00 56 1020.1
20260502201818 25 34 0.0 9.7 0.00 0.00 0.00 56 1020.3
20260502200848 25 336 0.0 3.2 0.00 0.00 0.00 58 1020.4
20260502195833 25 49 1.6 9.7 0.00 0.00 0.00 58 1020.6
20260502194848 24 315 4.8 6.4 0.00 0.00 0.00 58 1020.5
20260502193848 23 355 0.0 4.8 0.00 0.00 0.00 61 1020.6
20260502192833 23 22 0.0 8.0 0.00 0.00 0.00 61 1020.8
20260502191847 23 11 0.0 6.4 0.00 0.00 0.00 61 1020.9
20260502190847 23 320 3.2 14.5 0.00 0.00 0.00 61 1021.0
20260502185817 23 344 0.0 8.0 0.00 0.00 0.00 61 1021.1
20260502184847 22 5 0.0 4.8 0.00 0.00 0.00 63 1021.2
20260502183817 22 343 0.0 3.2 0.00 0.00 0.00 63 1021.2
20260502182847 22 20 0.0 4.8 0.00 0.00 0.00 64 1021.4
20260502181847 21 347 0.0 3.2 0.00 0.00 0.00 64 1021.5
20260502180817 21 51 1.6 6.4 0.00 0.00 0.00 66 1021.6
20260502163846 18 75 0.0 6.4 0.00 0.00 0.00 76 1022.2
20260502162846 17 30 0.0 8.0 0.00 0.00 0.00 76 1022.2
20260502161816 17 319 1.6 6.4 0.00 0.00 0.00 78 1022.3
20260502160815 17 47 1.6 6.4 0.00 0.00 0.00 79 1022.1
20260502151816 15 40 0.0 6.4 0.00 0.00 0.00 84 1021.8
20260502150815 15 355 3.2 14.5 0.00 0.00 0.00 84 1021.9
20260502122844 11 307 0.0 0.0 0.00 0.00 0.00 89 1020.1
20260502121814 11 307 0.0 0.0 0.00 0.00 0.00 89 1020.0
20260502120845 11 307 0.0 0.0 0.00 0.00 0.00 89 1020.0
20260502115844 11 307 0.0 0.0 0.00 0.00 0.00 89 1019.9
20260502114844 11 307 0.0 0.0 0.00 0.00 0.00 89 1019.7
20260502113844 12 307 0.0 0.0 0.00 0.00 0.00 88 1019.6
20260502112844 12 307 0.0 1.6 0.00 0.00 0.00 88 1019.5
20260502111844 12 307 0.0 3.2 0.00 0.00 0.00 88 1019.4
20260502110844 12 307 0.0 3.2 0.00 0.00 0.00 88 1019.3
20260502105844 12 307 0.0 6.4 0.00 0.00 0.00 88 1019.0
20260502104844 12 316 0.0 8.0 0.00 0.00 0.00 89 1018.9
20260502103844 12 300 8.0 8.0 0.00 0.00 0.00 89 1018.9
20260502102844 12 320 0.0 3.2 0.00 0.00 0.00 89 1019.0
20260502101844 12 320 0.0 4.8 0.00 0.00 0.00 89 1018.8
20260502100844 12 327 0.0 3.2 0.00 0.00 0.00 89 1018.8
20260502090843 12 330 1.6 3.2 0.00 0.00 0.00 88 1017.9
20260502070842 13 67 0.0 0.0 0.00 0.00 0.00 88 1017.5
20260502065842 13 40 0.0 0.0 0.00 0.00 0.00 88 1017.3
20260502064842 13 47 0.0 0.0 0.00 0.00 0.00 88 1017.5
20260502063842 13 24 0.0 0.0 0.00 0.00 0.00 88 1017.5
20260502062842 13 5 0.0 0.0 0.00 0.00 0.00 88 1017.6
20260502061842 13 40 0.0 0.0 0.00 0.00 0.00 88 1017.6
20260502060842 13 47 0.0 1.6 0.00 0.00 0.00 88 1017.7
20260502055841 13 311 0.0 3.2 0.00 0.00 0.00 88 1017.6
20260502054841 13 329 1.6 3.2 0.00 0.00 0.00 88 1017.6
20260502053841 13 34 1.6 6.4 0.00 0.00 0.00 89 1017.3
20260502052841 13 49 3.2 3.2 0.00 0.00 0.00 88 1017.5
20260502051841 13 65 1.6 6.4 0.00 0.00 0.00 88 1017.4
20260502050841 13 56 0.0 4.8 0.00 0.00 0.00 88 1017.5
20260502045841 13 51 3.2 6.4 0.00 0.00 0.00 88 1017.5
20260502044841 13 63 3.2 8.0 0.00 0.00 0.00 89 1017.5
20260502043840 13 345 0.0 3.2 0.00 0.00 0.00 89 1017.4
20260502042826 13 313 6.4 6.4 0.00 0.00 0.00 89 1017.5
20260502041827 13 5 3.2 14.5 0.00 0.00 0.00 89 1017.5
20260502040826 13 5 4.8 8.0 0.00 0.00 0.00 89 1017.5
20260502035827 13 5 1.6 4.8 0.00 0.00 0.00 89 1017.5
20260502034827 13 30 0.0 3.2 0.00 0.00 0.00 90 1017.4
20260502033826 13 36 0.0 3.2 0.00 0.00 0.00 90 1017.5
20260502032827 13 148 0.0 4.8 0.00 0.00 0.00 89 1017.4
20260502031826 13 20 1.6 6.4 0.00 0.00 0.00 89 1017.4
20260502030826 13 304 0.0 6.4 0.00 0.00 0.00 90 1017.2
20260502025826 13 41 1.6 6.4 0.00 0.00 0.00 90 1017.0
20260502024826 13 26 3.2 4.8 0.00 0.00 0.00 90 1016.7
20260502023826 13 355 3.2 4.8 0.00 0.00 0.00 90 1016.3
20260502022826 13 47 1.6 3.2 0.00 0.00 0.00 90 1015.7
20260502021825 13 5 0.0 4.8 0.00 0.00 0.00 90 1015.8
20260502020825 13 36 0.0 0.0 0.00 0.00 0.00 90 1015.8
20260502015825 13 46 0.0 0.0 0.00 0.00 0.00 90 1016.0
20260502014825 13 14 0.0 6.4 0.00 0.00 0.00 90 1015.9
20260502013825 13 30 1.6 4.8 0.00 0.00 0.00 90 1015.6
20260502012825 13 305 0.0 4.8 0.00 0.00 0.00 90 1015.4
20260502011825 13 321 0.0 4.8 0.00 0.00 0.00 90 1015.4
20260502010825 13 107 1.6 6.4 0.00 0.00 0.00 90 1015.3
20260502005825 14 337 1.6 4.8 0.00 0.00 0.00 89 1014.8
20260502004825 14 346 3.2 4.8 0.00 0.00 0.00 89 1014.8
20260502003825 14 46 0.0 4.8 0.00 0.00 0.00 89 1015.2
20260502002825 14 327 4.8 6.4 0.00 0.00 0.00 89 1015.4
20260502001825 14 335 0.0 8.0 0.00 0.00 0.00 89 1014.9
20260502000825 15 319 3.2 4.8 0.00 0.00 0.00 89 1014.6
20260501235824 15 355 1.6 4.8 0.00 0.00 0.00 89 1014.4
20260501234824 15 360 1.6 4.8 0.00 0.00 0.00 89 1014.3
20260501233824 15 17 0.0 4.8 0.00 0.00 0.00 89 1014.3
20260501232824 15 315 0.0 8.0 0.00 0.00 0.00 89 1014.1
20260501231824 15 328 1.6 9.7 0.00 0.00 0.00 90 1012.9
20260501230824 15 30 0.0 3.2 0.00 0.00 0.00 90 1012.2
20260501225824 15 53 1.6 14.5 0.00 0.00 0.00 90 1012.7
20260501224824 15 344 1.6 8.0 0.00 0.00 0.00 90 1013.4
20260501223824 16 355 3.2 8.0 0.00 0.00 0.00 90 1011.6
20260501222824 16 54 4.8 11.3 0.00 0.00 0.00 90 1011.1
20260501221824 16 38 1.6 8.0 0.00 0.00 0.00 90 1011.6
20260501220824 16 42 0.0 9.7 0.00 0.00 0.00 90 1012.2